Location: Emory University Observatory
(33.7903°N, 84.3267°W)
Time: 19:32:13
(UTC-05:00)

Hubble Space Telescope - Pass Details

Date: 10 October 2017
Orbit: 538 x 541 km, 28.5° (Epoch: 09 December)

Event Time Altitude Azimuth Distance (km) Brightness Sun altitude
Exits shadow 06:44:07 13° 235° (SW) 1,612 2.7 -12.1°
Maximum altitude 06:46:15 18° 200° (SSW) 1,354 2.6 -11.7°
Drops below altitude 10° 06:49:05 10° 156° (SSE) 1,784 3.8 -11.1°
Sets 06:51:54 0° 137° (SE) 2,673 5.0 -10.5°
